Orbital Elements at Epoch 2459200.5 (2020-Dec-17.0) TDB
Reference: JPL 13 (heliocentric ecliptic J2000)
Element | Value | Uncertainty (1-sigma) | Units |
e | .1695996813555482 | 5.1439e-08 | |
a | 2.396473978352396 | 1.1817e-08 | au |
q | 1.990032755246966 | 1.1984e-07 | au |
i | 1.114357484800659 | 6.656e-06 | deg |
node | 184.6865998589518 | 0.00023759 | deg |
peri | 84.1373707134515 | 0.00023852 | deg |
M | 174.956055614154 | 2.1226e-05 | deg |
tp | 2458541.957236888060 (2019-Feb-27.45723689) | 7.9195e-05 | TDB |
period | 1355.056810626444 3.71 | 1.0023e-05 2.744e-08 | d yr |
n | .2656715181067366 | 1.965e-09 | deg/d |
Q | 2.802915201457825 | 1.3821e-08 | au |
|
| | Orbit Determination Parameters
Additional Information
|